When you browse on this site, cookies collect data to enhance your experience and personalize the content and advertising you see.
Visit our Privacy Policy to learn more. By continuing to use the site, you agree to this use of cookies and data.
  • In Romania
  • List of Countries
  • For 7 days
  • Water Temperature
  • Satellite Maps
  • Weather Map
  • Weather Widgets
  • user-avatar
    Login

    Hourly Weather Soro

    Today, 20 May, Monday

    Time Temperature Precipitation Wind Pressure Humidity
    00:00 +14°C° 0 mm 2 mps 752 mmHg 96%
    01:00 +14°C° 0 mm 1 mps 752 mmHg 95%
    02:00 +14°C° 0 mm 1 mps 752 mmHg 96%
    03:00 +14°C° 0 mm 1 mps 751 mmHg 96%
    04:00 +14°C° 0 mm 2 mps 751 mmHg 97%
    05:00 +14°C° 0 mm 2 mps 751 mmHg 96%
    06:00 +15°C° 0 mm 2 mps 751 mmHg 95%
    07:00 +15°C° 0 mm 2 mps 751 mmHg 94%
    08:00 +16°C° 0 mm 2 mps 751 mmHg 91%
    09:00 +17°C° 0 mm 2 mps 751 mmHg 88%
    10:00 +17°C° 0 mm 2 mps 752 mmHg 86%
    11:00 +18°C° 0 mm 2 mps 751 mmHg 84%
    12:00 +18°C° 0 mm 2 mps 751 mmHg 81%
    13:00 +19°C° 0 mm 2 mps 751 mmHg 79%
    14:00 +19°C° 0 mm 2 mps 751 mmHg 79%
    15:00 +19°C° 0 mm 2 mps 751 mmHg 79%
    16:00 +20°C° 0 mm 2 mps 751 mmHg 78%
    17:00 +19°C° 0 mm 3 mps 751 mmHg 81%
    18:00 +19°C° 0 mm 3 mps 751 mmHg 84%
    19:00 +18°C° 0 mm 3 mps 751 mmHg 88%
    20:00 +17°C° 0.1 mm 3 mps 751 mmHg 90%
    21:00 +16°C° 0.1 mm 3 mps 751 mmHg 93%
    22:00 +14°C° 0.1 mm 3 mps 751 mmHg 95%
    23:00 +14°C° 0 mm 3 mps 751 mmHg 95%

    Tomorrow, 21 May, Tuesday

    Time Temperature Precipitation Wind Pressure Humidity
    00:00 +14°C° 0 mm 3 mps 751 mmHg 95%
    01:00 +14°C° 0 mm 4 mps 751 mmHg 95%
    02:00 +14°C° 0 mm 3 mps 751 mmHg 95%
    03:00 +14°C° 0 mm 3 mps 751 mmHg 95%
    04:00 +14°C° 0 mm 3 mps 750 mmHg 95%
    05:00 +14°C° 0 mm 3 mps 750 mmHg 94%
    06:00 +16°C° 0 mm 3 mps 750 mmHg 92%
    07:00 +16°C° 0 mm 3 mps 750 mmHg 91%
    08:00 +17°C° 0 mm 3 mps 751 mmHg 89%
    09:00 +18°C° 0 mm 3 mps 751 mmHg 87%
    10:00 +19°C° 0 mm 2 mps 751 mmHg 84%
    11:00 +19°C° 0 mm 3 mps 751 mmHg 84%
    12:00 +20°C° 0 mm 3 mps 751 mmHg 84%
    13:00 +20°C° 0 mm 3 mps 751 mmHg 83%
    14:00 +20°C° 0.1 mm 3 mps 751 mmHg 83%
    15:00 +20°C° 0.1 mm 3 mps 751 mmHg 83%
    16:00 +20°C° 0.1 mm 3 mps 751 mmHg 83%
    17:00 +19°C° 0.5 mm 3 mps 750 mmHg 86%
    18:00 +18°C° 0.5 mm 3 mps 750 mmHg 88%
    19:00 +17°C° 0.5 mm 3 mps 750 mmHg 90%
    20:00 +16°C° 0.3 mm 3 mps 750 mmHg 92%
    21:00 +16°C° 0.3 mm 3 mps 751 mmHg 93%
    22:00 +14°C° 0.3 mm 3 mps 751 mmHg 95%
    23:00 +14°C° 0.2 mm 3 mps 751 mmHg 96%

    Day after tomorrow, 22 May, Wednesday

    Time Temperature Precipitation Wind Pressure Humidity
    00:00 +14°C° 0.2 mm 3 mps 751 mmHg 97%
    01:00 +14°C° 0.2 mm 3 mps 751 mmHg 97%
    02:00 +14°C° 0 mm 3 mps 751 mmHg 97%
    03:00 +14°C° 0 mm 3 mps 751 mmHg 97%
    04:00 +13°C° 0 mm 3 mps 751 mmHg 97%
    05:00 +13°C° 0 mm 3 mps 751 mmHg 97%
    06:00 +13°C° 0 mm 4 mps 751 mmHg 96%
    07:00 +13°C° 0 mm 4 mps 752 mmHg 96%
    08:00 +13°C° 0 mm 4 mps 752 mmHg 95%
    09:00 +13°C° 0 mm 5 mps 752 mmHg 94%
    10:00 +13°C° 0 mm 5 mps 753 mmHg 94%
    11:00 +13°C° 0 mm 5 mps 753 mmHg 93%
    12:00 +12°C° 0 mm 5 mps 753 mmHg 92%
    13:00 +11°C° 0 mm 6 mps 754 mmHg 91%
    14:00 +13°C° 0 mm 6 mps 754 mmHg 88%
    15:00 +14°C° 0 mm 6 mps 754 mmHg 85%
    16:00 +14°C° 0 mm 6 mps 754 mmHg 82%
    17:00 +14°C° 0 mm 7 mps 755 mmHg 82%
    18:00 +12°C° 0 mm 7 mps 755 mmHg 82%
    19:00 +12°C° 0 mm 7 mps 755 mmHg 82%
    20:00 +11°C° 0 mm 7 mps 756 mmHg 84%
    21:00 +9°C° 0 mm 7 mps 756 mmHg 86%
    22:00 +8°C° 0 mm 6 mps 756 mmHg 87%
    23:00 +8°C° 0 mm 6 mps 756 mmHg 86%

    23 May, Thursday

    Time Temperature Precipitation Wind Pressure Humidity
    00:00 +8°C° 0 mm 6 mps 757 mmHg 85%
    01:00 +7°C° 0 mm 6 mps 757 mmHg 84%
    02:00 +7°C° 0 mm 6 mps 757 mmHg 85%
    03:00 +7°C° 0 mm 5 mps 757 mmHg 85%
    04:00 +7°C° 0 mm 5 mps 757 mmHg 86%
    05:00 +7°C° 0 mm 5 mps 757 mmHg 84%
    06:00 +8°C° 0 mm 6 mps 757 mmHg 81%
    07:00 +9°C° 0 mm 6 mps 757 mmHg 79%
    08:00 +10°C° 0 mm 6 mps 758 mmHg 76%
    09:00 +11°C° 0 mm 6 mps 758 mmHg 73%
    10:00 +13°C° 0 mm 6 mps 758 mmHg 70%
    11:00 +14°C° 0 mm 6 mps 758 mmHg 68%
    12:00 +14°C° 0 mm 6 mps 758 mmHg 66%
    13:00 +15°C° 0 mm 6 mps 758 mmHg 64%
    14:00 +15°C° 0 mm 6 mps 758 mmHg 64%
    15:00 +15°C° 0 mm 6 mps 758 mmHg 64%
    16:00 +15°C° 0 mm 6 mps 758 mmHg 64%
    17:00 +14°C° 0 mm 6 mps 758 mmHg 69%
    18:00 +13°C° 0 mm 5 mps 757 mmHg 74%
    19:00 +13°C° 0 mm 5 mps 757 mmHg 79%
    20:00 +11°C° 0 mm 4 mps 757 mmHg 83%
    21:00 +10°C° 0 mm 4 mps 757 mmHg 87%
    22:00 +8°C° 0 mm 4 mps 757 mmHg 90%
    23:00 +9°C° 0 mm 3 mps 757 mmHg 91%

    24 May, Friday

    Time Temperature Precipitation Wind Pressure Humidity
    00:00 +9°C° 0 mm 3 mps 756 mmHg 91%
    01:00 +8°C° 0 mm 3 mps 756 mmHg 92%
    02:00 +8°C° 0 mm 3 mps 756 mmHg 92%
    03:00 +8°C° 0 mm 3 mps 755 mmHg 93%
    04:00 +8°C° 0 mm 3 mps 755 mmHg 93%
    05:00 +9°C° 0 mm 3 mps 755 mmHg 88%
    06:00 +11°C° 0 mm 4 mps 755 mmHg 84%
    07:00 +12°C° 0 mm 4 mps 754 mmHg 79%
    08:00 +13°C° 0 mm 4 mps 754 mmHg 75%
    09:00 +14°C° 0 mm 4 mps 754 mmHg 71%
    10:00 +15°C° 0 mm 5 mps 754 mmHg 67%
    11:00 +16°C° 0 mm 5 mps 754 mmHg 66%
    12:00 +16°C° 0 mm 5 mps 753 mmHg 64%
    13:00 +16°C° 0 mm 5 mps 753 mmHg 63%
    14:00 +17°C° 0 mm 4 mps 753 mmHg 63%
    15:00 +17°C° 0 mm 3 mps 752 mmHg 64%
    16:00 +17°C° 0 mm 3 mps 752 mmHg 64%
    17:00 +17°C° 0 mm 2 mps 752 mmHg 68%
    18:00 +16°C° 0 mm 2 mps 752 mmHg 72%
    19:00 +16°C° 0 mm 1 mps 751 mmHg 75%
    20:00 +15°C° 0 mm 1 mps 751 mmHg 76%
    21:00 +14°C° 0 mm 1 mps 752 mmHg 76%
    22:00 +14°C° 0 mm 1 mps 752 mmHg 76%
    23:00 +13°C° 0 mm 1 mps 752 mmHg 77%

    25 May, Saturday

    Time Temperature Precipitation Wind Pressure Humidity
    00:00 +13°C° 0 mm 1 mps 752 mmHg 78%
    01:00 +13°C° 0 mm 1 mps 752 mmHg 79%
    02:00 +12°C° 0 mm 1 mps 752 mmHg 83%
    03:00 +12°C° 0 mm 2 mps 752 mmHg 86%
    04:00 +10°C° 0 mm 2 mps 752 mmHg 89%
    05:00 +11°C° 0 mm 3 mps 752 mmHg 88%
    06:00 +11°C° 0 mm 3 mps 752 mmHg 87%
    07:00 +12°C° 0 mm 3 mps 752 mmHg 86%
    08:00 +12°C° 0 mm 3 mps 753 mmHg 81%
    09:00 +13°C° 0 mm 3 mps 753 mmHg 76%
    10:00 +14°C° 0 mm 3 mps 753 mmHg 71%
    11:00 +14°C° 0 mm 4 mps 753 mmHg 69%
    12:00 +15°C° 0 mm 4 mps 753 mmHg 68%
    13:00 +15°C° 0 mm 4 mps 753 mmHg 66%
    14:00 +15°C° 0 mm 4 mps 753 mmHg 68%
    15:00 +15°C° 0 mm 5 mps 753 mmHg 70%
    16:00 +15°C° 0 mm 5 mps 753 mmHg 71%
    17:00 +14°C° 0 mm 5 mps 753 mmHg 74%
    18:00 +13°C° 0 mm 4 mps 753 mmHg 78%
    19:00 +12°C° 0 mm 4 mps 753 mmHg 81%
    20:00 +11°C° 0 mm 4 mps 754 mmHg 84%
    21:00 +10°C° 0 mm 5 mps 754 mmHg 88%
    22:00 +9°C° 0 mm 5 mps 754 mmHg 91%
    23:00 +8°C° 0 mm 5 mps 754 mmHg 90%
    Show more